GFSNIL_sfc_dewp_000.txt.gz
Dewpoint
77 73 72 73 68 66 64 63 67 72 69 67 67 66 65 62 61 63 62 64 65 59
77 76 72 74 73 69 70 63 68 69 68 66 67 65 65 60 62 62 63 62 64 62
75 76 75 74 74 72 71 70 68 68 65 65 65 65 66 62 63 63 58 56 61 63
73 73 75 74 75 74 73 70 69 68 65 65 64 65 66 65 62 62 63 62 63 64
73 73 73 74 74 73 72 69 69 67 67 65 64 64 65 63 61 61 61 62 63 64
72 72 73 74 72 72 69 69 67 67 68 68 67 65 65 65 64 62 61 62 63 63
72 72 73 72 69 67 67 67 67 68 67 66 66 65 65 64 64 62 61 63 63 64
73 73 72 70 67 66 66 67 64 64 63 64 66 63 66 64 62 63 63 64 64 64
75 73 70 70 69 69 68 66 64 63 64 64 63 60 61 63 62 63 64 64 65 67
74 71 70 69 69 68 67 67 65 64 64 64 65 60 60 62 62 62 66 66 67 65
73 70 70 69 69 68 65 65 65 65 65 64 63 61 60 62 65 67 66 66 64 65
71 69 69 69 68 68 66 65 65 66 66 66 65 58 58 62 63 64 65 65 64 64
70 70 69 69 69 69 68 66 63 65 66 63 67 58 56 60 60 64 63 65 64 59
71 71 71 70 69 68 67 67 67 66 67 66 65 65 56 56 63 60 61 62 66 62

GFSNIL_sfc_dewp_003.txt.gz
Dewpoint
79 72 70 73 69 66 64 64 71 71 71 70 67 67 67 63 62 66 63 65 68 60
78 77 72 76 75 69 73 65 66 69 71 70 67 67 68 62 66 64 64 65 68 63
76 78 77 77 76 74 73 71 71 69 69 69 69 69 70 66 67 66 61 58 66 67
75 75 76 75 75 75 74 74 72 72 70 68 67 67 68 67 65 67 67 67 64 66
76 75 75 76 76 76 75 74 72 72 70 67 67 68 67 65 63 63 62 62 66 65
74 75 75 76 76 76 76 74 70 71 70 67 67 67 67 67 65 63 62 62 65 64
75 75 74 76 76 75 75 73 70 70 68 67 66 66 65 65 65 65 64 64 65 65
76 75 75 76 77 75 73 71 69 68 67 66 63 62 66 65 65 66 65 63 63 65
77 76 76 76 75 73 72 70 68 66 65 65 60 60 63 65 63 65 65 66 65 68
78 76 75 74 74 72 71 70 68 65 66 65 65 60 61 63 63 64 65 67 66 65
77 75 73 72 72 72 71 70 68 66 67 66 65 60 60 63 65 64 64 65 65 66
76 74 72 71 71 71 71 71 68 66 68 67 67 58 58 62 65 65 66 65 65 67
75 74 71 71 71 72 72 70 65 65 67 65 68 57 57 61 64 62 59 69 68 61
73 72 71 72 72 71 71 69 67 66 67 69 67 65 56 56 63 58 61 60 65 60

GFSNIL_sfc_dewp_006.txt.gz
Dewpoint
76 74 74 75 72 72 70 71 72 73 74 74 71 71 71 70 69 69 68 67 68 67
77 75 74 75 75 73 74 72 73 72 74 72 71 71 72 68 68 69 70 69 68 67
77 76 75 75 75 73 73 73 71 73 71 72 71 71 71 68 69 69 68 67 68 68
76 76 76 76 76 74 75 73 73 71 72 72 70 71 70 69 68 68 68 68 68 67
76 77 76 75 76 75 76 74 72 73 72 71 69 70 69 67 65 68 67 68 68 67
75 75 76 76 75 75 75 74 73 72 72 70 68 69 68 68 67 67 66 66 67 66
74 75 74 75 76 75 75 74 74 72 72 70 68 68 67 68 67 67 66 68 68 67
75 75 75 75 75 75 76 75 75 73 71 69 66 65 67 67 67 67 67 66 67 67
74 75 75 75 76 76 76 75 75 71 69 68 64 62 64 67 66 67 67 66 67 68
74 75 75 75 76 76 76 75 73 70 68 66 67 61 62 64 66 66 67 66 68 65
75 75 75 75 75 76 74 73 72 70 67 66 66 60 60 63 64 66 67 66 67 65
77 76 76 75 75 74 73 72 71 69 67 67 67 59 59 61 64 65 65 66 66 66
77 77 75 74 73 72 72 72 71 68 68 65 69 58 57 60 63 64 65 67 67 62
77 76 74 72 72 72 72 73 70 67 67 68 68 67 55 56 64 64 64 63 65 65

GFSNIL_sfc_dewp_009.txt.gz
Dewpoint
73 69 69 71 71 70 70 70 71 71 70 69 67 68 68 66 66 65 64 63 62 62
73 72 71 72 73 71 68 70 70 72 71 69 67 68 67 66 64 65 64 61 62 62
73 71 71 72 72 71 69 70 69 71 72 70 67 67 67 64 66 65 65 64 63 62
74 73 72 73 72 71 71 70 70 70 72 70 68 68 67 64 64 65 62 63 62 63
74 74 73 72 72 73 71 70 70 70 69 70 68 68 67 65 64 63 64 63 62 61
74 74 74 72 74 74 70 71 70 68 69 69 68 67 67 65 64 65 64 65 64 63
73 74 74 74 72 74 73 72 69 69 69 69 68 67 67 66 65 65 65 64 64 63
73 73 74 74 74 72 73 73 72 70 70 69 67 66 66 66 65 65 64 64 65 64
72 73 73 74 74 74 72 73 73 71 70 69 66 64 65 66 65 65 65 64 65 62
71 72 72 73 73 74 73 74 74 71 70 68 67 62 63 65 65 65 64 65 66 64
71 71 73 73 73 74 74 74 72 70 69 68 67 60 61 63 65 65 64 66 66 64
70 72 73 73 73 74 74 72 71 70 67 66 66 60 58 61 63 64 64 65 65 63
70 72 74 73 74 73 72 71 71 69 67 64 66 59 58 59 62 61 62 63 63 61
74 74 74 73 71 71 70 71 70 69 66 65 65 62 56 56 61 60 62 62 62 63

GFSNIL_sfc_dewp_012.txt.gz
Dewpoint
71 70 70 69 71 70 70 70 71 71 70 67 66 65 65 64 64 64 62 63 62 61
72 71 70 71 71 71 70 70 71 71 69 67 66 66 66 64 63 65 63 62 61 62
71 72 70 71 71 71 70 70 70 70 69 67 65 67 66 64 63 64 64 63 61 62
71 71 71 71 71 72 69 69 70 70 70 68 66 66 65 64 64 62 63 64 62 62
72 72 71 71 71 71 70 69 69 69 70 69 67 65 66 64 63 64 62 62 62 61
72 73 72 70 71 71 71 69 69 69 70 69 68 66 65 65 64 62 64 63 62 61
73 73 73 72 71 71 72 70 69 69 69 70 69 67 67 66 64 64 64 64 63 63
73 73 74 73 72 71 73 71 70 68 69 68 69 68 67 66 65 63 64 64 64 64
73 73 73 74 73 72 73 73 70 69 68 69 69 65 65 66 66 65 63 63 63 64
73 73 73 73 74 73 72 72 72 70 70 69 69 64 64 65 65 65 64 63 64 64
73 72 73 73 73 74 73 73 72 71 70 70 69 63 62 64 66 65 64 64 64 65
72 72 73 72 73 73 74 73 73 72 70 70 69 60 60 63 66 65 64 64 65 66
71 71 71 72 73 74 74 74 72 71 70 66 67 57 57 60 62 63 63 64 64 61
71 71 72 73 74 74 73 72 71 69 67 66 66 64 57 56 61 61 62 61 63 63

GFSNIL_sfc_dewp_015.txt.gz
Dewpoint
69 69 69 68 68 69 70 71 71 71 71 70 65 65 64 63 63 63 63 60 60 62
70 70 69 69 69 69 70 71 71 71 71 69 66 65 64 63 63 64 62 62 62 61
70 70 70 70 69 69 70 70 70 71 70 69 66 65 64 63 63 64 63 62 61 60
70 70 70 69 70 70 70 70 70 70 70 69 66 66 65 64 63 63 63 63 61 60
69 70 71 70 70 70 70 70 70 70 70 69 67 65 65 64 64 62 61 63 62 62
70 70 70 71 70 71 70 69 69 69 70 69 68 65 65 64 64 63 62 61 62 62
70 71 70 70 70 70 71 70 69 69 69 70 69 67 66 66 65 63 64 64 62 61
70 71 71 71 70 70 71 70 69 69 69 70 69 69 67 67 65 65 64 64 64 63
71 72 72 72 71 70 70 71 70 69 68 69 69 66 65 67 67 66 65 64 64 63
70 72 72 72 72 71 70 71 70 69 69 69 69 64 63 65 67 66 65 65 65 63
71 71 72 73 72 72 71 72 70 69 68 69 69 61 62 65 67 66 66 65 65 63
71 72 72 72 73 73 72 72 72 71 70 69 69 60 60 62 67 66 66 66 64 63
72 72 72 72 72 74 74 73 72 72 71 68 70 59 58 63 67 66 65 62 63 62
71 72 72 73 73 74 74 73 73 72 72 71 68 59 57 60 66 64 63 62 62 63

GFSNIL_sfc_dewp_018.txt.gz
Dewpoint
70 69 69 69 69 69 70 71 73 72 72 71 69 68 67 65 64 65 65 65 64 63
70 70 69 70 70 69 71 71 72 72 72 71 69 68 67 65 65 65 65 65 64 63
70 70 70 70 70 70 70 72 72 72 72 71 70 68 67 65 65 65 64 63 64 64
70 70 70 70 70 70 70 71 72 72 72 71 70 68 66 66 65 65 65 65 63 64
70 71 70 70 70 71 70 71 71 72 72 71 70 68 67 66 65 64 64 65 64 63
70 70 70 70 70 71 71 71 71 71 71 71 70 68 68 67 66 65 65 65 65 64
69 69 70 71 71 70 71 71 71 71 71 71 70 69 68 67 67 66 66 65 64 64
69 69 70 71 71 71 71 71 70 71 71 71 70 69 68 68 67 66 66 65 65 64
69 70 70 70 71 71 71 71 71 70 70 70 70 66 65 67 68 67 66 66 65 66
70 70 71 71 71 71 71 71 71 70 70 70 71 64 64 65 69 68 67 67 66 66
70 70 71 72 71 71 71 71 71 70 70 70 70 63 62 65 69 68 67 67 66 66
70 70 71 71 72 72 71 71 71 71 70 70 70 61 60 63 69 68 67 67 67 66
71 71 71 72 72 72 72 72 72 71 71 68 70 59 58 63 68 67 66 67 67 62
71 72 71 72 73 73 73 72 72 71 71 71 70 65 57 59 68 67 67 65 65 65

GFSNIL_sfc_dewp_021.txt.gz
Dewpoint
75 72 72 73 70 70 69 70 73 74 75 75 74 74 73 71 69 69 68 68 67 64
74 74 72 74 74 70 74 70 73 74 74 75 74 74 74 70 70 69 69 68 68 65
73 74 74 74 74 74 73 73 73 73 74 74 74 74 74 71 71 70 67 65 68 67
72 73 73 73 74 74 74 74 74 74 74 74 74 74 74 73 71 69 69 68 68 68
73 73 73 73 74 74 74 74 75 75 74 74 74 74 73 72 71 70 69 68 67 67
72 73 73 73 74 74 74 75 73 74 75 74 73 74 73 73 72 70 70 69 68 67
72 72 72 74 74 74 75 74 74 75 74 74 73 73 72 72 72 71 70 70 68 67
72 73 73 74 74 74 74 74 74 75 74 74 73 71 73 72 72 72 70 70 69 68
72 73 74 74 74 74 74 74 74 74 74 74 71 67 67 71 72 72 72 71 70 69
72 73 73 74 74 74 74 74 74 74 74 74 74 64 65 67 71 72 72 71 70 69
72 72 73 73 73 74 74 74 74 74 74 74 74 63 63 65 72 72 72 72 71 70
72 72 73 73 73 73 74 74 74 74 74 74 74 62 61 64 70 72 72 72 71 70
73 73 73 73 74 74 74 73 72 73 74 71 74 62 60 64 69 71 70 71 71 63
73 74 74 74 74 74 74 73 74 73 74 74 72 72 58 59 71 70 69 69 69 71

GFSNIL_sfc_dewp_024.txt.gz
Dewpoint
77 72 72 74 70 69 67 68 72 73 74 75 75 75 76 73 72 73 71 70 67 59
77 76 72 76 75 71 74 69 72 73 74 74 74 75 76 72 74 72 72 70 69 64
75 76 76 76 76 76 74 74 72 73 74 74 74 75 76 73 74 74 70 67 69 68
74 74 75 75 76 77 75 76 75 75 74 73 74 75 76 75 73 74 73 70 69 69
75 75 74 76 76 77 77 76 76 75 75 74 73 75 75 75 72 73 72 71 70 69
73 74 75 76 76 77 77 77 74 76 77 75 74 74 75 75 74 73 73 72 71 70
74 74 74 76 76 76 77 77 77 77 77 76 74 74 74 74 74 74 73 73 72 71
74 76 76 76 77 77 77 77 77 77 77 76 74 71 75 75 74 75 74 74 73 72
75 76 76 77 77 77 77 77 77 76 76 76 72 66 66 72 74 75 75 74 74 73
75 76 76 76 77 77 77 77 77 77 77 77 76 64 64 67 73 74 75 76 74 72
74 75 76 77 76 77 77 76 76 77 77 77 76 65 62 65 74 75 75 74 74 74
74 74 75 76 76 77 76 76 76 76 77 77 77 63 61 65 72 72 75 74 74 74
75 75 75 76 77 77 76 76 73 75 76 73 77 65 60 65 69 71 70 75 76 65
75 76 76 77 77 76 76 74 76 75 76 77 75 75 58 60 72 68 69 67 69 72

GFSNIL_sfc_dewp_027.txt.gz
Dewpoint
78 72 71 73 68 67 65 66 74 77 76 76 76 75 77 73 73 75 72 72 71 61
77 77 73 75 75 71 74 67 74 75 76 76 76 77 78 72 75 75 74 73 72 66
77 78 77 77 77 75 74 76 75 75 75 76 76 77 78 74 76 76 72 70 74 72
76 76 77 76 77 77 77 78 76 77 76 76 76 77 78 77 75 76 76 74 74 73
76 76 76 77 76 78 78 78 78 77 77 77 76 77 77 76 73 75 75 74 74 71
75 75 75 77 77 78 78 78 77 77 78 77 76 76 77 77 76 75 75 75 74 73
75 75 75 76 78 77 78 78 78 77 78 78 77 76 76 76 77 76 75 75 75 74
75 76 77 77 77 78 78 78 78 78 77 78 77 73 76 75 76 77 76 75 76 75
75 77 77 78 78 79 78 78 78 78 77 77 75 68 67 73 75 76 77 76 76 76
75 76 77 78 78 78 78 78 78 78 78 77 77 66 64 67 74 75 76 77 76 75
74 76 77 78 78 78 78 78 78 78 78 78 77 67 62 65 73 75 76 76 76 76
75 75 77 77 78 78 78 78 77 78 78 78 78 65 62 64 72 73 75 76 76 76
76 76 77 77 78 78 78 77 76 77 78 74 78 67 61 63 71 72 72 75 76 66
76 77 77 78 78 78 78 77 77 77 77 78 77 77 61 59 74 70 71 71 72 73

GFSNIL_sfc_dewp_030.txt.gz
Dewpoint
77 73 71 75 70 71 70 70 75 75 76 76 76 76 78 76 75 76 75 75 73 71
75 76 71 73 75 73 74 71 75 75 75 75 76 76 77 75 76 76 75 75 75 72
74 75 75 73 75 73 75 74 77 75 75 76 76 77 77 76 76 75 75 73 73 73
75 75 75 74 74 76 74 78 74 77 76 76 75 76 77 75 75 75 75 75 74 72
75 76 75 74 74 75 77 75 77 76 76 76 75 76 75 75 73 75 75 74 74 72
75 75 75 76 74 75 75 77 75 77 76 75 75 75 76 75 75 73 75 75 74 73
75 75 75 75 76 75 76 75 76 76 76 76 75 75 75 75 75 75 74 75 75 74
74 75 75 76 76 77 76 76 76 76 76 76 76 74 75 75 75 75 75 74 75 75
74 75 76 76 76 76 76 76 76 76 76 76 75 70 68 73 74 75 75 75 74 75
74 74 75 76 76 76 76 77 77 76 76 76 76 67 66 68 74 74 75 75 75 74
75 74 75 76 76 77 76 77 76 77 77 77 76 67 64 66 73 74 74 75 75 75
75 75 75 76 76 77 77 77 77 77 77 77 77 65 63 64 72 72 73 74 75 75
74 75 75 76 77 77 77 77 76 77 77 74 77 68 61 64 73 71 71 73 74 67
76 75 75 77 77 77 77 77 77 77 77 77 76 76 61 59 74 73 72 71 71 72

GFSNIL_sfc_dewp_033.txt.gz
Dewpoint
74 71 68 72 67 71 69 71 72 73 74 73 74 74 73 73 73 73 71 71 68 65
71 74 68 67 72 67 71 69 72 72 75 74 73 73 74 73 72 73 72 71 71 68
70 71 73 69 68 72 68 70 70 73 72 74 74 74 73 74 74 73 73 72 71 70
72 70 73 72 69 71 72 71 72 73 72 73 73 75 73 73 73 74 73 72 71 70
73 72 70 73 73 68 73 71 74 74 73 74 73 73 74 73 73 72 73 73 71 71
72 73 72 71 71 74 69 74 71 75 74 74 74 74 73 74 74 72 73 73 72 71
73 73 73 73 72 70 73 71 75 71 74 74 74 73 74 73 73 73 72 73 73 72
73 73 73 73 74 73 71 72 72 74 72 74 73 73 73 73 73 73 73 72 74 73
73 73 73 73 73 74 74 71 73 73 72 73 74 69 68 72 73 73 73 73 72 73
72 73 73 73 73 73 73 74 72 72 74 72 73 67 66 68 73 73 73 73 73 72
71 72 73 73 73 73 73 73 74 74 73 74 74 66 64 66 72 73 73 73 73 73
71 71 72 73 73 73 73 73 73 74 74 74 74 64 63 64 71 72 72 73 73 73
71 72 72 72 73 73 74 74 74 74 75 72 75 66 61 64 72 72 72 72 72 66
73 73 73 73 73 74 74 74 74 75 75 75 74 74 61 60 73 73 73 72 71 71

GFSNIL_sfc_dewp_036.txt.gz
Dewpoint
70 69 68 68 67 67 70 69 70 73 73 73 73 72 72 71 71 72 70 70 66 65
71 70 69 68 69 68 70 71 71 71 73 73 73 72 72 71 71 73 71 69 70 66
70 73 70 68 69 71 69 70 71 71 73 73 72 72 73 72 72 72 72 71 69 69
69 69 73 70 67 68 70 69 70 71 72 73 73 72 72 72 73 72 72 72 70 69
71 70 69 73 70 68 69 71 69 72 72 72 73 73 72 72 72 73 72 72 71 70
71 71 69 70 72 71 68 70 72 73 72 72 72 72 73 72 72 72 73 72 72 71
71 71 71 70 70 72 72 68 70 73 73 73 73 72 72 73 73 72 72 73 72 72
71 72 72 72 71 70 71 73 69 70 72 74 73 73 73 72 72 73 73 72 73 73
72 72 72 73 73 71 71 70 72 71 72 72 73 69 68 71 72 72 72 72 72 72
72 73 73 73 73 73 73 72 70 70 72 72 72 66 66 68 72 72 72 72 72 72
72 72 73 73 73 73 73 73 73 71 71 72 72 65 64 66 72 72 72 73 72 72
71 72 73 72 73 73 73 72 73 73 73 71 72 63 62 64 71 72 73 73 73 73
70 71 72 72 72 73 73 73 73 72 73 71 73 63 61 64 72 72 72 73 73 66
68 70 71 72 72 72 73 73 73 73 73 74 73 73 61 60 73 73 73 72 72 72

GFSNIL_sfc_dewp_039.txt.gz
Dewpoint
66 67 67 67 67 67 68 69 70 72 72 72 72 72 71 70 70 70 69 69 65 65
68 68 67 68 67 67 68 69 69 71 72 72 72 72 71 70 70 71 70 69 69 65
68 69 68 68 68 67 68 70 70 70 71 72 72 72 71 71 70 70 71 70 68 68
69 69 69 69 69 69 68 69 71 71 71 71 72 72 72 71 71 70 70 71 70 68
69 70 71 70 69 68 70 69 69 71 71 71 72 72 72 71 72 71 70 71 71 70
68 68 69 72 71 68 68 69 69 70 71 71 72 72 72 71 71 72 72 71 71 71
69 69 69 69 71 71 69 68 70 70 71 71 71 72 72 72 71 71 72 73 72 72
71 71 70 69 69 71 72 70 69 70 71 72 72 71 72 72 72 71 71 72 72 72
70 71 71 71 70 69 70 72 71 69 69 71 72 68 68 70 71 72 72 71 72 72
70 70 71 71 71 71 69 70 71 71 70 69 70 65 66 68 72 71 71 71 71 72
71 71 71 71 72 72 72 70 70 70 70 71 71 65 63 66 72 72 72 72 71 71
71 71 72 71 71 72 72 73 72 71 70 69 70 63 62 64 71 72 72 72 72 72
71 71 71 72 72 72 72 72 73 73 73 69 71 63 61 63 71 71 71 72 73 66
70 71 72 72 72 72 72 72 72 72 73 73 72 71 60 59 71 71 71 71 72 72

GFSNIL_sfc_dewp_042.txt.gz
Dewpoint
67 67 67 68 68 68 69 70 72 72 73 73 73 73 73 71 70 72 71 71 69 67
67 67 67 69 69 68 70 70 71 72 73 73 73 73 73 72 72 72 72 71 71 69
67 68 68 69 69 69 69 71 71 71 72 73 73 73 73 72 72 72 72 72 71 71
67 68 69 69 69 69 69 70 71 71 71 72 73 73 73 73 72 72 72 72 72 72
68 69 69 69 69 70 69 70 71 71 71 72 72 73 73 72 72 72 71 71 72 72
68 69 69 69 70 70 70 70 70 71 71 72 72 73 73 73 72 73 72 72 72 72
68 69 70 70 71 70 70 70 70 71 71 72 72 73 73 73 73 72 73 73 73 72
69 70 70 71 72 71 70 70 70 71 71 71 71 71 73 73 73 72 72 73 73 73
69 70 70 70 70 72 72 71 71 70 70 71 70 67 67 71 73 73 73 72 73 73
70 70 71 71 70 70 71 72 71 71 71 71 72 65 65 67 72 72 73 73 73 72
71 71 71 71 71 71 70 70 72 72 71 71 71 64 63 65 72 72 72 73 73 73
71 70 71 71 71 72 72 71 70 71 72 72 72 62 62 64 71 72 72 73 73 73
71 71 71 71 72 72 72 72 72 71 72 69 71 63 61 63 70 70 71 73 74 66
72 72 72 72 72 72 72 73 73 73 73 73 71 71 60 59 71 71 71 72 72 73

GFSNIL_sfc_dewp_045.txt.gz
Dewpoint
73 68 68 71 68 67 67 68 73 74 74 74 75 75 75 73 73 74 73 73 73 69
73 72 70 73 72 69 72 68 72 73 74 74 74 75 75 73 74 74 74 74 74 72
71 72 72 72 72 72 71 72 71 73 73 74 74 75 75 73 74 75 73 72 74 74
70 71 71 71 71 73 72 73 73 74 74 74 74 74 75 75 74 74 75 74 74 74
71 71 70 71 71 73 73 73 73 73 73 74 73 74 74 74 72 74 74 74 74 74
69 70 71 72 72 73 73 73 71 72 73 73 73 74 74 74 74 74 73 73 74 74
70 71 71 72 73 72 74 73 73 73 73 73 73 73 73 73 74 74 74 74 74 74
71 72 73 73 73 73 73 73 73 73 73 73 72 70 73 73 74 74 74 74 74 74
72 73 73 74 74 74 73 73 74 73 73 73 70 66 66 71 73 74 74 74 74 75
73 73 73 74 74 74 74 73 74 73 73 73 74 65 64 67 71 72 73 74 74 73
73 73 73 74 74 74 74 74 74 73 74 74 74 65 63 65 72 74 74 75 74 75
73 73 73 73 74 73 73 73 73 73 74 74 74 63 62 65 72 72 74 74 75 74
73 73 74 74 74 74 74 73 71 72 74 71 74 65 60 64 70 71 70 74 75 67
74 74 75 75 75 74 74 74 74 73 74 74 73 73 60 58 71 70 70 70 71 72

GFSNIL_sfc_dewp_048.txt.gz
Dewpoint
74 68 68 71 67 66 64 64 70 73 73 74 74 74 75 75 72 73 72 73 72 64
74 73 70 74 71 67 71 65 69 70 73 73 74 75 75 71 73 73 73 73 74 71
71 73 73 72 73 73 70 72 70 71 71 72 73 74 75 72 74 74 72 70 73 74
70 70 71 71 72 73 72 72 73 72 71 72 73 74 75 74 72 74 74 74 73 74
71 71 70 71 71 73 73 73 73 73 72 72 72 73 74 74 71 73 73 73 74 73
69 69 71 72 72 73 73 73 72 72 73 72 71 73 74 74 73 73 73 73 73 73
70 70 69 73 74 72 74 73 73 73 73 73 72 71 72 73 73 73 73 73 73 74
72 72 73 74 74 73 74 74 74 73 73 73 71 68 72 71 72 73 73 73 74 74
74 75 74 75 76 75 75 75 74 73 73 73 69 64 65 69 70 72 73 73 74 74
75 75 75 75 76 76 76 75 75 74 74 75 75 64 63 66 69 69 72 74 73 71
75 75 76 76 76 77 75 76 75 74 76 76 74 64 62 65 72 72 73 73 73 75
75 75 75 75 76 75 75 75 74 74 76 76 76 63 62 66 71 71 74 73 74 75
75 75 75 76 76 76 75 74 72 73 75 71 75 64 61 66 70 71 69 75 77 66
75 76 76 77 77 76 75 74 75 74 75 76 74 74 60 59 72 68 67 67 66 68

GFSNIL_sfc_dewp_051.txt.gz
Dewpoint
75 66 64 70 65 64 62 63 76 74 73 74 74 73 76 72 71 74 71 72 74 66
74 72 66 70 73 68 72 64 70 72 73 73 73 75 77 70 73 75 74 74 74 71
74 75 73 74 75 73 72 74 70 72 71 72 74 74 78 73 75 75 71 69 76 76
72 72 74 74 74 75 74 75 75 74 73 73 73 75 77 77 74 74 76 75 73 75
72 72 71 73 74 76 76 75 75 75 75 74 73 75 76 74 72 73 73 73 75 72
71 72 71 74 74 75 76 76 73 75 76 75 74 75 76 76 74 73 73 74 75 74
71 72 71 73 75 75 76 76 76 76 76 75 74 74 73 74 75 75 73 74 74 75
73 73 73 73 75 75 76 76 77 77 76 76 72 69 74 74 75 76 74 74 74 74
73 74 73 74 75 76 76 77 77 77 76 75 69 65 65 71 73 75 75 75 76 76
74 74 75 75 76 76 77 77 78 77 77 76 76 64 63 65 70 72 74 76 76 73
74 75 76 76 76 77 76 77 77 77 77 77 76 65 62 64 73 72 74 75 75 76
74 75 76 76 76 77 76 77 77 77 78 78 77 64 62 65 72 71 74 75 75 75
75 76 76 77 77 78 77 77 74 76 77 74 78 65 61 65 70 72 70 75 76 67
76 77 77 78 78 78 77 75 77 76 77 77 76 76 60 59 74 69 68 67 66 67

GFSNIL_sfc_dewp_054.txt.gz
Dewpoint
74 69 70 73 70 73 72 71 75 76 75 77 77 77 78 76 75 76 76 76 76 74
74 73 69 73 74 73 74 71 75 75 76 76 77 76 78 75 76 77 77 76 77 76
70 73 73 69 73 73 75 75 75 76 75 76 77 77 77 75 76 77 75 74 76 76
71 71 71 72 69 75 73 78 76 77 76 75 75 77 77 76 75 75 76 76 76 76
72 71 70 69 73 73 76 75 79 76 77 75 75 76 76 75 72 74 75 75 75 75
71 71 71 71 71 74 74 76 74 77 75 76 75 75 76 76 75 75 75 75 75 75
71 71 70 72 71 73 75 74 75 75 76 75 75 74 75 75 75 75 74 76 75 76
72 72 72 72 73 72 73 74 75 75 76 75 74 72 74 74 75 75 75 75 75 75
72 73 73 72 73 74 73 74 75 75 75 75 73 68 66 72 73 75 75 74 75 76
72 73 73 73 72 74 73 74 75 75 76 75 75 65 64 67 71 73 74 75 75 74
72 72 73 73 73 73 74 74 75 75 76 76 75 66 62 64 71 72 74 74 74 75
71 72 73 73 73 73 74 74 74 75 76 76 76 64 63 63 70 71 72 72 73 75
71 73 73 73 73 74 74 74 74 74 75 73 76 66 62 64 71 71 71 73 74 66
73 73 74 75 75 75 75 75 75 75 75 76 75 75 61 59 72 71 71 71 71 72

GFSNIL_sfc_dewp_057.txt.gz
Dewpoint
70 66 69 70 69 70 70 70 73 73 73 72 73 73 73 72 72 73 71 70 71 70
72 66 68 68 69 67 69 70 72 73 72 74 73 73 74 72 73 72 73 71 70 72
68 71 68 67 69 68 67 69 72 74 73 74 73 72 74 71 73 72 72 72 72 71
66 70 70 68 66 70 68 73 73 73 73 74 74 74 73 72 73 72 72 72 72 72
68 68 69 69 67 65 70 70 73 73 73 73 72 73 73 73 72 72 72 72 72 71
69 66 67 66 69 66 71 69 72 73 72 73 72 72 73 73 73 72 72 72 72 72
68 69 66 66 65 71 68 73 72 74 72 73 72 73 73 73 73 73 72 73 73 73
69 68 69 67 67 63 72 68 72 72 74 73 73 72 72 74 73 73 73 72 73 73
70 69 69 69 70 67 66 72 70 71 72 74 73 69 68 71 73 73 73 73 73 73
69 70 69 69 69 71 67 68 72 72 72 72 73 67 66 68 70 71 73 73 73 73
70 70 70 70 69 70 70 69 69 71 73 73 73 67 64 66 69 70 70 73 73 72
69 70 70 70 70 69 70 71 70 71 72 73 73 65 64 63 66 68 70 72 72 73
69 70 70 70 70 71 69 69 71 70 72 71 73 65 63 63 69 67 68 69 71 66
68 69 70 71 70 70 70 70 70 71 71 73 73 73 61 60 71 69 68 68 68 70

GFSNIL_sfc_dewp_063.txt.gz
Dewpoint
65 66 66 68 68 68 69 71 71 71 71 71 70 71 70 70 70 70 69 69 69 68
66 65 66 68 69 69 69 70 72 71 71 72 71 71 70 70 70 70 70 69 68 69
68 67 66 67 69 70 70 70 71 71 71 71 71 71 71 70 70 69 70 71 70 68
66 69 68 66 66 68 69 70 70 72 71 71 71 71 71 70 70 70 70 70 70 70
64 66 69 68 66 66 67 68 69 70 71 71 71 71 71 71 71 70 70 70 70 70
64 64 65 68 69 66 66 67 70 71 72 71 71 71 71 71 71 71 71 70 70 70
65 64 64 65 67 68 65 66 67 72 72 72 71 71 71 71 71 71 71 71 71 71
67 66 64 64 65 67 68 66 65 68 72 72 72 71 71 72 71 71 71 71 71 71
67 67 66 65 64 65 66 67 66 66 67 71 71 67 67 70 71 71 71 70 70 71
68 67 68 67 65 64 64 65 66 67 68 68 70 65 65 67 70 70 71 71 70 71
67 67 68 69 67 65 64 65 64 64 66 69 69 65 63 65 70 70 70 71 71 71
68 69 68 68 68 68 66 65 65 63 63 66 67 63 62 64 69 69 70 70 71 72
68 69 70 69 68 68 68 67 67 66 64 63 66 61 62 63 70 70 70 70 70 65
64 66 70 71 71 70 69 69 69 69 67 65 68 68 59 59 70 69 69 69 69 70

GFSNIL_sfc_dewp_066.txt.gz
Dewpoint
68 68 68 68 68 69 70 71 73 73 72 72 72 72 71 72 73 72 70 71 72 69
67 68 68 69 70 69 71 71 73 72 73 72 72 72 73 71 71 72 72 71 71 70
66 67 67 68 69 70 70 71 73 73 73 73 73 72 72 71 71 71 71 72 72 71
67 67 67 67 68 70 71 71 72 73 73 72 72 73 72 72 72 71 71 71 72 72
67 68 67 66 67 69 70 71 72 72 73 72 72 72 73 72 72 71 71 71 71 71
66 67 68 68 68 68 68 68 70 71 72 72 72 72 72 72 72 72 72 71 71 72
66 66 66 68 69 68 68 68 68 70 71 72 72 72 72 72 72 72 72 72 72 72
66 66 66 67 68 69 68 68 68 68 71 72 72 71 73 73 72 72 72 72 72 72
68 68 67 67 67 68 69 68 68 68 68 70 71 68 67 71 72 72 72 72 72 73
68 68 68 68 67 67 67 68 68 67 68 69 70 65 65 67 72 72 72 72 72 71
68 68 69 69 68 67 66 67 67 68 68 68 68 63 63 65 71 72 72 72 72 72
68 68 68 69 69 68 67 66 66 67 68 68 68 61 61 64 70 70 71 72 72 72
68 69 69 69 69 70 69 68 66 67 67 65 68 61 60 62 68 68 69 71 72 65
66 67 70 71 71 71 70 70 69 68 68 67 66 66 58 59 69 68 67 68 69 71

GFSNIL_sfc_dewp_069.txt.gz
Dewpoint
72 69 69 71 69 69 69 70 75 75 75 75 74 74 74 72 71 73 71 73 74 70
72 72 70 72 72 69 72 70 73 74 75 74 74 74 75 71 73 74 74 72 73 71
70 71 71 72 72 72 72 73 73 74 74 74 75 75 75 73 74 74 72 71 73 73
69 69 70 70 71 73 73 74 74 74 74 74 74 75 75 74 73 73 73 73 73 73
70 70 69 70 70 72 73 73 74 74 74 74 74 75 75 74 72 73 73 73 73 72
68 69 69 70 70 70 72 73 72 74 74 74 74 75 75 74 74 73 73 72 73 73
68 69 69 71 71 70 71 71 72 72 73 74 74 74 74 74 74 74 73 73 73 73
69 70 69 70 72 71 71 71 72 71 71 72 71 70 73 74 74 74 73 73 73 73
70 71 71 71 71 72 71 71 72 71 71 71 68 64 67 71 73 74 74 73 74 74
70 71 71 71 71 71 71 72 71 71 71 71 72 64 65 68 70 73 74 74 74 72
69 70 71 71 71 71 71 71 71 71 72 72 71 63 63 66 71 73 73 73 74 74
69 69 70 70 71 71 70 70 70 70 71 71 72 61 61 65 70 70 73 73 73 74
70 69 71 71 71 71 71 70 69 69 70 68 72 63 59 63 66 68 67 72 74 66
66 69 69 70 73 72 71 71 71 70 71 71 70 70 59 58 69 66 67 66 66 66

GFSNIL_sfc_dewp_072.txt.gz
Dewpoint
74 70 69 70 66 67 66 68 72 73 72 73 73 72 73 70 68 70 70 71 72 66
73 72 69 71 71 67 70 67 72 71 72 72 73 73 75 70 72 71 72 71 71 69
72 73 72 72 72 71 69 72 71 73 73 72 73 75 75 70 73 73 69 67 72 72
70 71 72 71 72 72 71 72 73 74 74 73 72 73 75 73 71 73 72 71 71 73
71 70 69 71 71 72 72 72 73 75 74 74 73 74 74 72 70 71 71 72 72 71
69 70 70 70 71 71 72 72 71 73 75 74 74 74 74 73 72 72 72 72 72 72
69 69 69 70 71 71 72 72 72 72 73 73 71 73 73 74 73 72 72 73 72 72
70 70 70 71 72 72 72 72 72 71 72 72 71 68 72 73 74 73 73 73 73 73
70 71 71 72 72 72 72 72 72 71 70 70 67 64 66 71 72 73 73 73 74 74
70 71 71 72 72 72 72 72 73 72 71 72 72 63 63 67 69 70 72 73 72 71
69 69 71 73 72 72 72 72 72 73 74 74 72 63 62 64 71 71 72 72 72 74
66 70 70 70 72 73 72 72 71 72 73 74 74 62 61 65 69 68 72 72 73 74
65 66 68 71 74 76 75 73 71 71 72 69 73 64 59 64 66 68 65 71 74 66
61 64 65 69 73 74 75 75 74 73 72 72 71 72 59 58 69 66 65 64 62 63

GFSNIL_sfc_dewp_075.txt.gz
Dewpoint
74 69 68 71 69 67 71 71 75 73 72 72 73 72 73 70 68 73 69 70 73 70
74 73 70 74 71 68 73 73 72 72 72 72 72 73 74 69 72 75 72 71 72 70
73 74 73 71 73 72 73 71 73 72 72 71 72 72 74 73 74 73 69 65 74 74
71 72 73 71 71 73 71 72 72 75 73 72 72 72 75 76 72 72 73 73 71 74
71 71 71 72 72 73 74 72 72 73 73 73 72 73 74 72 69 71 71 71 74 70
69 70 71 71 72 74 74 74 70 72 74 72 72 74 75 74 72 71 71 71 72 72
70 70 71 72 73 72 74 74 73 73 74 73 71 72 73 74 74 73 72 72 72 72
70 72 72 72 74 73 74 74 74 74 74 73 71 67 73 73 73 75 73 73 73 73
71 73 73 73 73 74 74 75 75 73 73 73 67 64 65 70 73 74 75 75 75 75
69 71 72 74 74 74 74 74 76 75 74 74 74 64 63 66 69 72 74 75 76 72
62 67 70 73 73 74 74 74 74 74 76 76 74 64 62 64 73 72 73 74 75 76
58 63 66 67 72 75 74 73 73 73 75 76 76 63 61 64 69 69 73 73 74 74
56 60 65 66 65 71 75 72 71 72 73 71 75 67 60 63 68 69 68 72 74 66
56 56 60 64 64 67 70 74 73 72 74 76 74 74 60 58 71 69 67 67 66 67

GFSNIL_sfc_dewp_078.txt.gz
Dewpoint
76 75 72 72 73 72 70 73 76 76 76 77 75 76 76 76 75 75 74 74 75 74
75 75 74 75 76 72 72 74 74 75 75 75 74 77 76 74 75 75 73 75 74 74
75 76 76 77 76 77 72 71 71 72 73 75 74 75 76 76 72 74 72 72 74 75
74 74 75 75 76 76 76 72 70 66 67 73 75 76 76 75 73 73 74 76 75 74
74 74 74 75 75 77 77 76 73 69 69 73 75 75 76 74 73 73 74 74 74 74
73 74 74 75 75 76 76 76 74 75 76 76 75 76 75 75 75 73 73 75 75 74
72 72 72 75 76 75 77 76 75 75 76 75 75 75 75 75 75 75 74 75 75 75
69 73 76 76 76 76 75 75 76 75 75 75 74 70 74 75 75 74 73 74 74 75
70 72 73 75 75 77 75 76 75 75 75 74 71 66 66 72 74 75 75 73 75 75
65 67 70 73 75 76 76 76 75 75 75 74 74 66 63 66 71 73 75 75 74 73
59 62 67 70 69 71 76 76 76 75 75 75 74 66 64 64 71 73 73 74 75 74
57 57 61 67 68 69 71 74 75 75 75 75 75 65 62 64 70 70 72 73 73 73
60 59 59 61 65 67 69 70 73 74 74 70 74 67 62 63 71 70 69 70 72 66
58 59 61 62 61 66 67 68 70 70 74 74 73 74 61 60 73 71 70 70 69 69

GFSNIL_sfc_dewp_081.txt.gz
Dewpoint
71 70 70 69 70 71 70 71 72 73 72 72 71 71 71 70 71 71 69 66 68 70
71 71 70 68 69 71 69 72 72 72 72 72 72 71 72 70 70 70 70 70 70 69
73 72 72 72 72 70 71 71 69 68 69 72 72 73 72 71 70 70 68 68 68 70
73 73 72 72 72 71 71 69 69 68 66 69 72 72 71 71 71 70 70 70 71 70
73 73 73 72 72 72 71 71 69 69 66 67 70 72 72 71 70 71 70 70 71 69
72 73 72 73 72 73 72 70 67 66 67 70 71 72 72 72 72 71 71 70 70 70
67 69 71 73 74 74 74 73 72 72 72 72 72 71 72 72 71 72 71 71 72 71
69 67 67 69 72 73 74 73 73 72 73 73 72 72 72 72 71 72 71 72 72 72
65 68 69 70 71 71 72 73 74 72 73 72 72 68 67 71 72 72 71 70 71 72
62 63 66 69 68 67 71 72 72 73 73 72 72 67 65 66 71 73 72 71 71 71
60 59 61 66 66 66 68 70 72 72 72 73 74 67 65 65 65 67 72 73 73 72
60 58 58 60 61 65 67 68 70 72 72 72 72 66 63 64 68 68 68 70 72 72
56 56 56 59 60 60 65 66 67 69 70 70 72 67 62 63 70 68 69 68 69 66
54 55 54 54 56 60 60 62 65 65 67 70 72 72 63 60 69 71 70 70 69 68

GFSNIL_sfc_dewp_084.txt.gz
Dewpoint
69 68 66 68 70 70 70 70 71 72 72 71 71 70 70 70 70 69 70 66 67 68
70 69 69 69 68 69 70 70 71 72 72 72 71 70 71 69 69 70 69 69 69 68
70 70 70 69 67 69 69 72 71 71 72 72 71 71 71 70 69 69 68 67 67 67
72 71 71 71 71 71 70 71 70 69 68 69 70 72 72 70 70 69 69 68 70 69
70 71 71 71 71 71 70 69 69 67 66 66 68 71 71 70 70 70 69 69 69 69
68 70 70 70 71 72 70 70 69 67 66 66 67 70 71 71 70 70 70 69 69 70
67 66 67 69 70 71 70 70 68 66 66 66 67 70 71 71 70 71 71 70 70 70
67 67 68 68 67 67 70 72 70 69 69 69 70 70 70 72 70 70 70 71 72 71
65 65 66 68 68 68 68 71 72 72 71 72 73 68 68 70 71 70 70 69 70 70
60 61 61 65 67 66 66 68 70 71 71 71 71 67 65 66 70 71 71 71 70 69
60 60 61 61 62 63 66 67 68 69 70 71 72 65 64 65 67 68 71 72 71 70
57 57 57 60 61 62 63 63 64 66 68 69 70 64 61 64 68 68 67 68 71 72
53 54 54 55 57 60 61 62 63 64 65 64 67 64 61 63 68 68 69 70 69 65
51 50 50 51 52 55 57 59 61 62 64 65 65 66 61 60 68 70 71 68 70 69

GFSNIL_sfc_dewp_087.txt.gz
Dewpoint
68 66 66 67 69 69 70 70 71 71 71 70 70 69 69 70 70 69 69 67 68 68
68 68 66 66 69 69 70 69 70 71 71 71 70 69 70 69 68 69 69 68 68 68
69 69 68 69 68 68 68 69 70 71 71 71 71 70 70 70 69 68 68 67 67 66
70 70 69 69 68 67 68 69 71 70 70 71 70 71 70 70 70 69 68 68 68 69
70 70 70 70 70 70 70 70 69 69 68 68 68 70 70 70 70 69 68 68 68 68
66 68 69 70 70 71 70 69 69 68 67 66 65 68 70 71 70 70 69 68 69 68
67 66 67 67 67 69 70 70 69 68 68 66 65 66 69 70 70 70 70 70 69 68
67 67 68 68 67 67 68 69 71 69 68 66 66 67 68 70 71 70 70 70 71 70
65 64 65 68 67 66 67 68 68 70 70 70 71 66 66 69 70 71 70 69 69 70
61 61 61 62 62 65 66 65 66 67 69 70 71 66 64 67 70 71 70 70 70 70
60 60 61 61 61 61 62 62 63 63 65 67 69 64 62 64 67 68 69 70 71 70
55 54 54 55 57 59 60 61 62 63 64 64 64 62 61 62 67 68 68 68 69 71
50 52 51 51 54 56 57 59 61 62 63 62 64 62 59 61 67 68 68 69 69 64
47 47 47 50 49 51 52 54 56 58 60 61 61 63 57 56 64 67 68 69 69 70

GFSNIL_sfc_dewp_090.txt.gz
Dewpoint
69 69 69 69 70 71 71 71 72 72 72 72 71 70 71 71 71 71 71 70 71 70
69 68 67 68 70 71 71 71 72 72 72 72 72 71 71 71 71 71 71 71 70 70
69 69 69 69 69 70 70 71 71 71 72 72 72 72 72 72 71 71 70 69 69 70
70 70 70 70 70 70 70 69 70 71 72 72 71 72 71 72 71 71 70 70 70 71
71 71 71 70 71 71 71 71 70 71 71 71 71 72 72 72 72 71 70 70 70 70
67 68 69 70 71 71 71 71 70 70 70 70 69 70 71 72 71 71 71 71 70 71
67 68 68 67 68 68 70 71 71 70 70 70 69 68 69 71 71 71 71 71 71 71
67 67 68 68 68 68 68 69 71 71 70 70 68 66 68 70 71 72 71 71 72 72
65 64 65 66 66 67 67 67 69 69 70 71 71 67 65 68 71 72 71 72 72 72
62 61 62 62 62 64 63 64 64 65 66 67 69 63 63 65 69 71 72 72 72 71
58 58 60 60 59 61 62 62 63 63 64 65 66 62 61 62 68 69 70 71 72 72
54 53 53 55 56 57 58 60 61 62 63 64 64 54 54 60 67 69 70 71 71 71
50 51 52 52 54 56 56 58 61 61 61 58 60 52 51 56 61 64 68 70 71 65
46 46 47 50 50 51 52 54 54 54 56 56 53 54 50 50 51 53 60 65 67 68

GFSNIL_sfc_dewp_093.txt.gz
Dewpoint
73 70 70 72 71 70 73 76 75 74 74 74 74 73 73 71 71 74 72 72 73 70
72 72 71 73 73 72 73 71 73 74 73 74 74 73 73 70 72 73 73 72 73 70
73 73 72 72 71 72 72 73 74 73 73 74 74 74 74 72 73 73 71 70 72 72
72 72 73 72 72 72 73 72 73 74 73 74 74 74 75 75 73 73 73 72 72 72
72 72 73 73 73 73 73 73 73 73 73 73 72 74 74 73 71 72 72 72 72 71
69 72 73 73 73 73 73 74 74 74 73 73 73 73 74 74 73 72 72 72 73 72
69 70 71 71 71 72 73 74 74 74 73 73 72 71 71 71 72 73 73 73 73 73
68 70 69 70 70 70 71 71 73 74 73 73 72 71 71 70 70 71 72 72 72 73
68 66 66 68 69 69 69 69 70 71 72 72 69 64 65 69 71 72 72 72 74 73
64 64 64 64 65 65 65 65 66 66 68 68 67 60 61 64 72 73 75 74 75 74
59 59 61 61 61 61 63 63 63 64 65 63 54 54 59 62 69 71 72 73 74 74
54 54 54 56 57 58 59 61 62 63 66 59 53 51 54 64 68 69 70 71 72 73
50 51 52 53 55 57 58 60 59 58 58 56 52 50 50 54 54 57 63 69 67 61
49 48 51 52 53 53 53 54 55 54 55 54 53 49 48 49 49 49 52 54 55 54

GFSNIL_sfc_dewp_096.txt.gz
Dewpoint
73 68 71 70 69 75 70 68 72 71 71 72 73 73 74 70 68 71 69 70 72 67
74 73 69 72 72 76 76 70 71 71 71 71 72 73 74 68 71 72 71 70 71 69
70 70 70 71 73 73 72 74 73 71 71 71 71 73 75 70 72 73 70 67 70 71
71 69 70 70 70 71 72 74 75 74 71 72 71 71 73 73 71 72 72 72 71 71
71 71 69 70 70 72 72 75 74 73 74 73 71 72 72 71 70 72 70 70 71 71
71 71 71 71 70 71 72 72 70 71 72 73 72 72 73 73 72 71 70 70 70 70
70 71 71 71 72 71 73 73 71 71 71 71 73 72 72 72 72 72 70 71 70 70
70 71 71 72 72 72 72 72 73 73 73 73 72 69 73 72 71 71 71 71 71 70
70 70 70 70 70 70 70 71 72 72 73 73 70 62 64 70 71 72 72 72 73 72
67 68 67 66 66 68 68 69 69 70 71 67 64 56 60 64 71 73 73 73 73 70
63 64 65 64 65 66 66 68 68 67 68 62 53 53 56 61 70 71 72 73 73 73
56 57 60 61 63 65 66 66 66 67 64 60 54 50 52 61 68 70 71 70 66 68
55 55 55 57 57 60 61 63 62 63 60 55 55 49 49 54 58 63 64 69 66 57
51 53 53 55 55 57 59 60 60 59 59 57 54 49 48 49 47 48 54 58 58 57

GFSNIL_sfc_dewp_099.txt.gz
Dewpoint
71 68 67 69 73 67 71 67 75 72 72 72 72 72 72 69 68 73 69 71 75 68
73 72 72 71 72 70 73 74 71 71 71 71 71 72 73 69 70 73 72 71 72 70
71 71 70 71 71 72 72 75 73 70 70 71 71 72 73 72 72 72 70 67 73 71
70 71 71 70 70 71 71 73 72 72 71 71 71 72 74 75 73 72 73 73 72 71
70 70 72 70 70 71 72 72 72 73 73 73 72 73 73 72 70 71 71 70 70 70
71 71 72 73 70 70 71 72 71 72 73 72 73 73 73 74 73 71 70 70 70 69
70 71 72 72 72 72 73 72 71 71 72 71 71 73 72 72 72 71 70 70 70 70
70 71 71 71 72 73 74 72 71 71 72 71 70 71 71 72 71 72 72 71 71 71
71 72 72 71 72 72 73 73 72 72 73 72 66 61 62 68 74 72 72 71 72 73
70 70 70 70 71 70 71 73 71 71 71 67 62 55 57 63 68 72 74 75 75 71
66 67 67 68 67 66 68 70 70 70 68 63 53 52 54 57 67 70 72 73 73 74
63 64 64 64 67 67 69 68 68 69 66 62 55 50 52 59 68 72 72 71 68 71
58 58 60 62 63 64 66 66 66 64 63 57 57 49 49 53 56 64 62 71 62 53
55 55 56 58 58 59 63 64 65 63 62 57 54 49 48 48 53 48 52 54 53 55

GFSNIL_sfc_dewp_102.txt.gz
Dewpoint
76 72 73 75 74 71 71 71 73 75 75 75 75 75 76 76 75 76 75 75 76 75
75 75 75 75 77 74 72 71 70 67 74 75 73 74 74 75 75 73 71 73 75 75
74 75 75 76 75 75 70 68 69 68 72 74 74 75 76 75 75 75 71 71 74 75
74 73 74 75 75 76 72 69 69 73 74 73 75 75 76 76 75 73 73 74 73 73
72 73 74 72 71 73 75 75 76 77 75 75 74 74 75 75 73 73 73 73 74 73
74 73 74 74 72 72 73 76 75 76 75 74 75 74 74 75 75 74 74 73 73 73
71 72 71 72 72 73 74 73 73 75 74 74 75 74 74 74 74 74 73 74 74 74
71 70 71 71 71 72 71 72 72 73 74 70 68 66 67 70 72 73 73 74 73 73
72 71 71 71 71 70 70 71 71 71 72 69 65 59 60 64 72 74 73 74 75 76
71 71 71 71 71 71 70 70 70 71 68 60 56 54 56 60 66 72 73 73 74 73
70 69 69 69 68 68 70 69 69 69 66 61 51 52 54 58 66 70 73 74 74 73
66 66 66 67 68 68 69 67 69 69 67 62 52 50 51 59 65 73 72 69 59 65
61 63 64 64 65 66 68 70 66 64 62 59 54 49 49 51 58 62 60 66 60 53
56 59 60 62 62 63 64 68 66 64 61 56 54 49 48 48 52 50 57 57 55 54

GFSNIL_sfc_dewp_108.txt.gz
Dewpoint
70 70 69 68 70 70 69 69 70 71 71 71 71 70 71 70 70 70 69 67 68 70
70 70 70 71 70 70 70 70 70 71 68 67 70 71 70 70 68 69 68 64 69 70
71 70 70 70 70 70 71 70 70 69 67 66 68 70 70 70 70 69 69 64 68 68
71 71 70 69 69 69 68 67 68 67 66 69 70 70 70 70 70 68 68 69 69 69
71 71 70 70 70 69 68 66 65 66 69 71 71 70 70 70 71 70 69 68 69 69
70 69 70 69 69 69 70 70 69 70 71 71 70 70 71 71 71 70 70 70 69 69
69 69 70 70 69 69 70 69 69 70 70 69 67 67 67 69 70 71 71 71 71 70
68 69 69 69 69 69 69 68 69 68 67 65 64 63 63 66 67 70 70 71 71 70
68 67 66 68 69 68 68 67 69 67 64 60 57 55 57 59 64 67 70 70 71 67
68 68 68 69 68 67 66 68 64 58 53 48 49 54 56 59 60 66 69 68 69 65
68 68 67 66 66 65 66 66 61 57 53 44 45 53 57 62 65 65 63 65 61 56
67 66 65 65 65 65 65 64 62 58 53 44 42 51 55 59 66 61 55 54 50 47
64 64 62 62 61 62 65 65 62 57 52 48 41 49 51 51 56 60 57 55 53 52
61 61 59 59 59 61 63 61 59 56 53 45 42 43 49 48 43 48 52 52 51 46

GFSNIL_sfc_dewp_111.txt.gz
Dewpoint
69 69 68 68 68 69 69 69 69 70 71 70 70 66 70 70 69 70 68 66 68 68
69 69 69 69 69 69 69 69 69 70 70 70 70 70 70 69 68 68 67 65 66 69
69 69 69 70 69 69 69 70 68 69 68 67 67 69 70 70 69 68 68 64 67 68
69 69 70 70 69 69 69 68 68 69 67 65 68 70 70 70 70 69 68 69 69 68
70 70 70 69 69 69 68 67 66 66 66 68 70 70 70 69 71 70 68 68 68 68
70 70 70 69 69 69 68 68 67 68 69 70 70 70 70 70 71 70 70 70 69 69
70 70 70 70 69 68 69 68 69 70 70 69 67 67 68 69 70 70 70 70 71 70
70 71 70 70 69 69 69 69 69 69 67 66 65 63 63 64 66 67 68 71 71 70
69 69 68 68 68 69 68 68 69 67 65 61 62 58 57 60 63 66 70 70 68 67
68 67 67 67 68 68 68 68 64 60 56 50 50 55 57 59 60 66 69 70 69 63
67 68 68 68 67 66 67 63 58 53 50 45 48 55 59 63 65 65 66 64 63 59
68 67 66 65 64 65 64 60 57 52 48 43 43 53 56 62 61 59 57 56 56 50
66 65 64 64 64 64 63 61 57 53 46 46 40 50 51 58 57 52 52 55 52 52
63 63 63 62 63 64 63 59 56 53 47 41 41 46 50 48 48 52 53 52 50 44

GFSNIL_sfc_dewp_114.txt.gz
Dewpoint
69 69 69 69 70 70 70 70 71 71 72 72 71 68 69 71 71 72 71 70 72 72
70 69 69 70 70 70 71 70 70 71 72 72 72 72 72 71 70 71 70 69 69 72
69 70 70 71 70 70 70 70 70 71 70 71 70 71 72 72 72 71 69 67 69 71
69 70 70 70 70 70 71 71 70 70 70 69 69 71 72 72 72 71 71 71 70 71
70 71 70 70 70 70 70 69 69 70 70 68 70 72 72 71 72 71 71 70 70 70
70 70 70 70 70 70 69 69 68 67 68 69 72 72 72 72 71 72 72 72 71 71
70 70 69 70 70 70 69 70 70 70 71 71 71 70 70 70 71 71 71 72 72 72
70 70 70 70 70 70 70 70 69 70 70 68 68 66 65 67 67 68 70 71 72 72
70 69 69 69 69 69 69 69 69 68 67 66 64 57 58 60 64 66 69 70 71 68
69 69 69 69 68 68 68 68 68 66 62 57 55 56 57 59 61 66 69 70 69 65
68 68 68 68 68 68 68 66 63 58 53 52 54 55 59 63 66 66 63 64 64 60
68 68 68 68 67 67 65 61 58 55 52 52 51 52 58 63 63 60 58 56 57 56
68 68 66 66 66 66 63 60 54 51 50 47 49 51 52 59 57 54 54 56 55 52
65 65 65 65 66 66 62 58 55 51 48 48 48 48 50 50 56 57 57 54 52 48

GFSNIL_sfc_dewp_117.txt.gz
Dewpoint
72 69 69 72 73 70 70 70 73 73 75 75 74 73 72 70 72 73 73 73 74 72
72 72 70 72 72 70 72 71 73 72 73 74 74 73 73 70 72 73 73 72 72 72
71 73 73 72 73 73 72 73 73 72 72 73 74 74 75 75 73 73 71 70 71 72
71 71 73 73 73 73 73 73 72 73 72 73 73 73 73 75 74 73 73 72 72 72
72 72 72 73 73 73 73 72 73 72 72 71 72 72 73 72 72 73 73 72 73 72
72 72 73 73 73 73 73 72 71 71 71 72 71 71 73 74 74 72 72 72 72 72
72 72 72 73 72 71 72 73 72 72 72 72 72 73 74 74 73 73 73 73 73 73
74 73 73 72 72 71 71 71 72 72 72 73 73 72 72 72 71 71 71 72 73 74
72 71 72 71 72 71 71 70 71 71 69 68 69 59 58 63 69 69 70 71 72 71
70 70 70 70 71 71 70 69 70 69 67 66 60 56 58 59 64 67 70 71 72 69
68 68 69 69 69 69 69 69 68 65 61 58 57 54 58 62 66 69 68 67 69 66
69 68 68 68 68 69 69 67 64 60 56 57 55 53 59 65 67 64 60 59 59 61
68 68 68 68 68 67 67 64 61 59 55 51 53 51 53 61 64 63 58 56 54 51
64 66 67 66 67 65 62 61 60 58 56 52 52 50 50 52 63 61 61 59 56 54

GFSNIL_sfc_dewp_120.txt.gz
Dewpoint
72 73 68 69 71 68 68 68 71 71 72 72 73 73 73 70 70 71 71 73 73 67
73 73 69 71 75 70 76 75 74 73 72 71 72 72 73 69 70 72 72 71 72 70
71 72 72 72 75 72 72 74 73 73 73 73 73 73 75 71 72 72 70 68 70 72
70 70 71 71 73 74 75 74 74 74 73 73 73 73 75 74 72 72 72 72 71 72
71 71 70 72 72 74 74 75 74 74 73 73 73 73 73 73 70 71 71 70 71 71
71 71 71 72 72 73 73 73 72 73 73 73 72 73 73 74 72 72 71 70 71 71
71 71 71 72 73 73 74 73 73 73 73 73 72 72 73 73 72 72 71 73 71 71
72 72 74 74 74 73 73 72 72 72 72 73 72 70 73 73 72 72 72 72 73 72
74 74 74 72 74 73 72 71 71 71 71 71 70 59 58 62 69 71 71 71 71 73
73 72 73 73 73 72 72 73 72 71 71 70 69 57 57 58 64 68 70 71 71 72
71 71 72 70 70 70 71 70 71 71 69 69 66 55 58 62 64 68 70 70 71 72
70 70 69 69 69 70 70 70 68 64 61 60 58 53 58 64 68 67 64 62 64 64
70 70 68 69 68 69 69 66 62 59 59 57 60 53 53 60 67 66 64 64 59 50
67 66 68 69 68 66 62 60 59 58 57 57 55 53 52 52 64 62 63 62 60 57

GFSNIL_sfc_dewp_123.txt.gz
Dewpoint
72 68 67 70 67 66 66 66 72 72 72 72 73 72 73 70 69 73 69 73 74 68
72 71 69 75 72 69 72 68 72 71 72 72 72 72 74 70 70 71 72 71 73 71
70 71 71 75 73 72 75 73 73 73 72 72 72 73 75 72 74 72 70 68 73 73
69 70 71 70 72 74 75 74 74 74 75 74 73 73 76 75 75 74 73 72 71 72
71 70 69 70 70 75 75 76 76 75 74 74 74 75 75 74 71 73 71 71 73 70
70 70 71 71 71 72 74 74 71 75 75 75 74 73 73 74 73 72 71 71 71 71
69 69 70 71 73 71 72 73 72 73 73 73 71 71 73 73 73 72 72 74 72 72
73 72 73 73 74 74 73 72 72 71 71 72 71 68 72 72 72 72 71 72 72 73
75 73 73 74 73 74 73 73 73 73 71 72 71 61 62 65 69 70 71 71 71 72
72 73 73 72 75 75 75 75 73 73 72 72 66 59 58 59 65 70 72 72 73 72
72 72 73 73 73 74 74 73 73 71 70 70 59 56 59 63 67 68 70 69 69 73
70 70 70 71 71 71 72 71 70 67 64 63 59 55 57 62 68 68 66 64 62 66
71 71 70 71 72 71 71 69 63 61 59 59 59 52 53 55 64 68 67 64 60 53
67 68 68 68 68 65 61 60 58 58 57 55 53 51 49 51 58 61 66 67 64 52